owner,sensor,date,latitude,longitude,vertical_datum,wind_speed,wind_to_direction,wind_speed_of_gust,qcFlag 
TABS,ioos:station:wmo:42045:1,2009-02-01T00:00:00Z,26.2168,-96.4998,4.0,8.381932951,146.8789884,10.42,'11111222,11111222,11111222' 
TABS,ioos:station:wmo:42045:1,2009-02-01T00:30:00Z,26.2168,-96.4998,4.0,7.988948617,152.2484153,9.79,'11111222,11111222,11111222' 
TABS,ioos:station:wmo:42045:1,2009-02-01T01:00:00Z,26.2168,-96.4998,4.0,8.510992892,152.8029777,10.13,'11111222,11111222,11111222' 
TABS,ioos:station:wmo:42045:1,2009-02-01T01:30:00Z,26.2168,-96.4998,4.0,8.222949592,151.8458153,10.06,'11111222,11111222,11111222' 
TABS,ioos:station:wmo:42045:1,2009-02-01T02:00:00Z,26.2168,-96.4998,4.0,8.239496344,156.9203742,10.1,'11111222,11111222,11111222' 
TABS,ioos:station:wmo:42045:1,2009-02-01T02:30:00Z,26.2168,-96.4998,4.0,8.286132994,162.4399795,10.03,'11111222,11111222,11111222' 
TABS,ioos:station:wmo:42045:1,2009-02-01T03:00:00Z,26.2168,-96.4998,4.0,8.304697466,165.4954711,10.16,'11111222,11111222,11111222' 
TABS,ioos:station:wmo:42045:1,2009-02-01T03:30:00Z,26.2168,-96.4998,4.0,8.778166095,168.7671082,10.83,'11111222,11111222,11111222' 
TABS,ioos:station:wmo:42045:1,2009-02-01T04:00:00Z,26.2168,-96.4998,4.0,9.147026839,165.1132121,10.77,'11111222,11111222,11111222' 
TABS,ioos:station:wmo:42045:1,2009-02-01T04:30:00Z,26.2168,-96.4998,4.0,9.028355332,171.9778256,11.65,'11111222,11111222,11111222' 
TABS,ioos:station:wmo:42045:1,2009-02-01T05:00:00Z,26.2168,-96.4998,4.0,9.202287759,166.5529433,10.97,'11111222,11111222,11111222' 
TABS,ioos:station:wmo:42045:1,2009-02-01T05:30:00Z,26.2168,-96.4998,4.0,8.915856661,167.3668781,10.8,'11111222,11111222,11111222' 
TABS,ioos:station:wmo:42045:1,2009-02-01T06:00:00Z,26.2168,-96.4998,4.0,8.462936842,165.1429662,10.89,'11111222,11111222,11111222' 
TABS,ioos:station:wmo:42045:1,2009-02-01T06:30:00Z,26.2168,-96.4998,4.0,8.63690338,172.3485961,10.68,'11111222,11111222,11111222' 
TABS,ioos:station:wmo:42045:1,2009-02-01T07:00:00Z,26.2168,-96.4998,4.0,8.965093418,176.6750396,10.99,'11111222,11111222,11111222' 
TABS,ioos:station:wmo:42045:1,2009-02-01T07:30:00Z,26.2168,-96.4998,4.0,9.415439448,178.0525437,11.13,'11111222,11111222,11111222' 
TABS,ioos:station:wmo:42045:1,2009-02-01T08:00:00Z,26.2168,-96.4998,4.0,9.33237376,172.8599807,11.34,'11111222,11111222,11111222' 
TABS,ioos:station:wmo:42045:1,2009-02-01T08:30:00Z,26.2168,-96.4998,4.0,8.30101801,179.1028822,10.48,'11111222,11111222,11111222' 
TABS,ioos:station:wmo:42045:1,2009-02-01T09:00:00Z,26.2168,-96.4998,4.0,8.510370145,177.1714322,10.56,'11111222,11111222,11111222' 
TABS,ioos:station:wmo:42045:1,2009-02-01T09:30:00Z,26.2168,-96.4998,4.0,8.75057141,177.1835883,10.79,'11111222,11111222,11111222' 
TABS,ioos:station:wmo:42045:1,2009-02-01T10:00:00Z,26.2168,-96.4998,4.0,8.640833293,179.2044888,10.2,'11111222,11111222,11111222' 
TABS,ioos:station:wmo:42045:1,2009-02-01T10:30:00Z,26.2168,-96.4998,4.0,8.288262785,177.4415999,9.73,'11111222,11111222,11111222' 
TABS,ioos:station:wmo:42045:1,2009-02-01T11:00:00Z,26.2168,-96.4998,4.0,8.094244869,176.6005042,9.37,'11111222,11111222,11111222' 
TABS,ioos:station:wmo:42045:1,2009-02-01T11:30:00Z,26.2168,-96.4998,4.0,8.120221672,180.4235696,9.78,'11111222,11111222,11111222' 
TABS,ioos:station:wmo:42045:1,2009-02-01T12:00:00Z,26.2168,-96.4998,4.0,6.521295883,181.1424569,9.63,'11111222,11111222,11111222' 
TABS,ioos:station:wmo:42045:1,2009-02-01T12:30:00Z,26.2168,-96.4998,4.0,6.467990414,186.2132161,8.64,'11111222,11111222,11111222' 
TABS,ioos:station:wmo:42045:1,2009-02-01T13:00:00Z,26.2168,-96.4998,4.0,4.273839024,196.8663456,5.23,'11111222,11111222,11111222' 
TABS,ioos:station:wmo:42045:1,2009-02-01T13:30:00Z,26.2168,-96.4998,4.0,7.126317422,177.5874952,9.19,'11111222,11111222,11111222' 
TABS,ioos:station:wmo:42045:1,2009-02-01T14:00:00Z,26.2168,-96.4998,4.0,7.808847546,197.4373585,9.97,'11111222,11111222,11111222' 
TABS,ioos:station:wmo:42045:1,2009-02-01T14:30:00Z,26.2168,-96.4998,4.0,6.350787353,192.9204133,8.19,'11111222,11111222,11111222' 
TABS,ioos:station:wmo:42045:1,2009-02-01T15:00:00Z,26.2168,-96.4998,4.0,3.600013889,179.8410563,4.38,'11111222,11111222,11111222' 
TABS,ioos:station:wmo:42045:1,2009-02-01T15:30:00Z,26.2168,-96.4998,4.0,2.795514264,203.1718347,3.73,'11111222,11111222,11111222' 
TABS,ioos:station:wmo:42045:1,2009-02-01T16:00:00Z,26.2168,-96.4998,4.0,3.041710045,202.0114422,3.79,'11111222,11111222,11111222' 
TABS,ioos:station:wmo:42045:1,2009-02-01T16:30:00Z,26.2168,-96.4998,4.0,2.896204413,193.1727331,3.82,'11111222,11111222,11111222' 
TABS,ioos:station:wmo:42045:1,2009-02-01T17:00:00Z,26.2168,-96.4998,4.0,5.195767508,193.1270428,6.38,'11111222,11111222,11111222' 
TABS,ioos:station:wmo:42045:1,2009-02-01T17:30:00Z,26.2168,-96.4998,4.0,5.988029726,213.9025026,7.32,'11111222,11111222,11111222' 
TABS,ioos:station:wmo:42045:1,2009-02-01T18:00:00Z,26.2168,-96.4998,4.0,5.067168835,207.1214504,6.42,'11111222,11111222,11111222' 
TABS,ioos:station:wmo:42045:1,2009-02-01T18:30:00Z,26.2168,-96.4998,4.0,5.238024437,186.9081308,6.43,'11111222,11111222,11111222' 
TABS,ioos:station:wmo:42045:1,2009-02-01T19:00:00Z,26.2168,-96.4998,4.0,6.859300256,171.2794713,8.08,'11111222,11111222,11111222' 
TABS,ioos:station:wmo:42045:1,2009-02-01T19:30:00Z,26.2168,-96.4998,4.0,6.442398622,172.6876824,8.1,'11111222,11111222,11111222' 
TABS,ioos:station:wmo:42045:1,2009-02-01T20:00:00Z,26.2168,-96.4998,4.0,6.777197061,171.344055,8.42,'11111222,11111222,11111222' 
TABS,ioos:station:wmo:42045:1,2009-02-01T20:30:00Z,26.2168,-96.4998,4.0,7.631022212,166.8199105,9.36,'11111222,11111222,11111222' 
TABS,ioos:station:wmo:42045:1,2009-02-01T21:00:00Z,26.2168,-96.4998,4.0,7.279127695,159.9969761,8.53,'11111222,11111222,11111222' 
TABS,ioos:station:wmo:42045:1,2009-02-01T21:30:00Z,26.2168,-96.4998,4.0,7.081708833,167.3573499,8.32,'11111222,11111222,11111222' 
TABS,ioos:station:wmo:42045:1,2009-02-01T22:00:00Z,26.2168,-96.4998,4.0,7.502492919,165.0934249,8.59,'11111222,11111222,11111222' 
TABS,ioos:station:wmo:42045:1,2009-02-01T22:30:00Z,26.2168,-96.4998,4.0,6.802859693,160.686361,8.09,'11111222,11111222,11111222' 
TABS,ioos:station:wmo:42045:1,2009-02-01T23:00:00Z,26.2168,-96.4998,4.0,6.483903145,162.6831267,7.83,'11111222,11111222,11111222' 
TABS,ioos:station:wmo:42045:1,2009-02-01T23:30:00Z,26.2168,-96.4998,4.0,6.316399291,160.3891448,7.26,'11111222,11111222,11111222' 
TABS,ioos:station:wmo:42045:1,2009-02-02T00:00:00Z,26.2168,-96.4998,4.0,5.787443304,154.187903,7.29,'11111222,11111222,11111222' 
TABS,ioos:station:wmo:42045:1,2009-02-02T00:30:00Z,26.2168,-96.4998,4.0,6.97849554,155.8960601,8.49,'11111222,11111222,11111222' 
TABS,ioos:station:wmo:42045:1,2009-02-02T01:00:00Z,26.2168,-96.4998,4.0,7.163811834,164.7030395,8.43,'11111222,11111222,11111222' 
TABS,ioos:station:wmo:42045:1,2009-02-02T01:30:00Z,26.2168,-96.4998,4.0,5.684012667,163.8610055,6.65,'11111222,11111222,11111222' 
TABS,ioos:station:wmo:42045:1,2009-02-02T02:00:00Z,26.2168,-96.4998,4.0,4.340057603,158.9343141,5.39,'11111222,11111222,11111222' 
TABS,ioos:station:wmo:42045:1,2009-02-02T02:30:00Z,26.2168,-96.4998,4.0,3.731058831,154.9462669,4.48,'11111222,11111222,11111222' 
TABS,ioos:station:wmo:42045:1,2009-02-02T03:00:00Z,26.2168,-96.4998,4.0,2.573033229,151.4431325,3.48,'11111222,11111222,11111222' 
TABS,ioos:station:wmo:42045:1,2009-02-02T03:30:00Z,26.2168,-96.4998,4.0,2.698981289,138.4549156,3.42,'11111222,11111222,11111222' 
TABS,ioos:station:wmo:42045:1,2009-02-02T04:00:00Z,26.2168,-96.4998,4.0,3.003231593,128.5111645,3.76,'11111222,11111222,11111222' 
TABS,ioos:station:wmo:42045:1,2009-02-02T04:30:00Z,26.2168,-96.4998,4.0,3.649068374,138.6666747,4.55,'11111222,11111222,11111222' 
TABS,ioos:station:wmo:42045:1,2009-02-02T05:00:00Z,26.2168,-96.4998,4.0,3.809383152,132.0210741,5.07,'11111222,11111222,11111222' 
TABS,ioos:station:wmo:42045:1,2009-02-02T05:30:00Z,26.2168,-96.4998,4.0,2.244036542,137.7094454,3.37,'11111222,11111222,11111222' 
TABS,ioos:station:wmo:42045:1,2009-02-02T06:00:00Z,26.2168,-96.4998,4.0,2.712876702,164.1708935,3.65,'11111222,11111222,11111222' 
TABS,ioos:station:wmo:42045:1,2009-02-02T06:30:00Z,26.2168,-96.4998,4.0,2.986703869,176.1606231,3.86,'11111222,11111222,11111222' 
TABS,ioos:station:wmo:42045:1,2009-02-02T07:00:00Z,26.2168,-96.4998,4.0,2.140490598,189.6825388,2.87,'11111222,11111222,11111222' 
TABS,ioos:station:wmo:42045:1,2009-02-02T07:30:00Z,26.2168,-96.4998,4.0,2.593414737,192.6967297,3.23,'11111222,11111222,11111222' 
TABS,ioos:station:wmo:42045:1,2009-02-02T08:00:00Z,26.2168,-96.4998,4.0,3.034270917,201.6613106,3.62,'11111222,11111222,11111222' 
TABS,ioos:station:wmo:42045:1,2009-02-02T08:30:00Z,26.2168,-96.4998,4.0,1.828770078,221.0092015,2.31,'11111222,11111222,11111222' 
TABS,ioos:station:wmo:42045:1,2009-02-02T09:00:00Z,26.2168,-96.4998,4.0,2.157962002,214.4266065,2.68,'11111222,11111222,11111222' 
TABS,ioos:station:wmo:42045:1,2009-02-02T09:30:00Z,26.2168,-96.4998,4.0,2.442949038,219.685572,2.98,'11111222,11111222,11111222' 
TABS,ioos:station:wmo:42045:1,2009-02-02T10:00:00Z,26.2168,-96.4998,4.0,1.535740864,280.5050393,2.24,'11111222,11111222,11111222' 
TABS,ioos:station:wmo:42045:1,2009-02-02T10:30:00Z,26.2168,-96.4998,4.0,1.932976979,298.4211428,2.81,'11111222,11111222,11111222' 
TABS,ioos:station:wmo:42045:1,2009-02-02T11:00:00Z,26.2168,-96.4998,4.0,2.816558183,317.3019977,3.89,'11111222,11111222,11111222' 
TABS,ioos:station:wmo:42045:1,2009-02-02T11:30:00Z,26.2168,-96.4998,4.0,3.692830892,316.7555335,4.78,'11111222,11111222,11111222' 
TABS,ioos:station:wmo:42045:1,2009-02-02T12:00:00Z,26.2168,-96.4998,4.0,4.927331935,317.7965967,6.25,'11111222,11111222,11111222' 
TABS,ioos:station:wmo:42045:1,2009-02-02T12:30:00Z,26.2168,-96.4998,4.0,8.697798572,326.5838531,10.74,'11111222,11111222,11111222' 
TABS,ioos:station:wmo:42045:1,2009-02-02T13:00:00Z,26.2168,-96.4998,4.0,9.368991408,326.5811813,12.03,'11111222,11111222,11111222' 
TABS,ioos:station:wmo:42045:1,2009-02-02T13:30:00Z,26.2168,-96.4998,4.0,8.098604818,330.8078211,10.08,'11111222,11111222,11111222' 
TABS,ioos:station:wmo:42045:1,2009-02-02T14:00:00Z,26.2168,-96.4998,4.0,9.537132693,348.6309738,12.08,'11111222,11111222,11111222' 
TABS,ioos:station:wmo:42045:1,2009-02-02T14:30:00Z,26.2168,-96.4998,4.0,11.60566241,344.2510894,13.8,'11111222,11111222,11111222' 
TABS,ioos:station:wmo:42045:1,2009-02-02T15:00:00Z,26.2168,-96.4998,4.0,12.61117758,350.276072,15.47,'11111222,11111222,11111222' 
TABS,ioos:station:wmo:42045:1,2009-02-02T15:30:00Z,26.2168,-96.4998,4.0,12.33163817,352.6385086,14.81,'11111222,11111222,11111222' 
TABS,ioos:station:wmo:42045:1,2009-02-02T16:00:00Z,26.2168,-96.4998,4.0,12.68315812,353.4351206,14.86,'11111222,11111222,11111222' 
TABS,ioos:station:wmo:42045:1,2009-02-02T16:30:00Z,26.2168,-96.4998,4.0,12.64394321,354.235102,15.72,'11111222,11111222,11111222' 
TABS,ioos:station:wmo:42045:1,2009-02-02T17:00:00Z,26.2168,-96.4998,4.0,11.67911384,352.9173843,14.64,'11111222,11111222,11111222' 
TABS,ioos:station:wmo:42045:1,2009-02-02T17:30:00Z,26.2168,-96.4998,4.0,12.81103431,347.1459949,15.47,'11111222,11111222,11111222' 
TABS,ioos:station:wmo:42045:1,2009-02-02T18:00:00Z,26.2168,-96.4998,4.0,12.16313282,348.7637895,14.57,'11111222,11111222,11111222' 
TABS,ioos:station:wmo:42045:1,2009-02-02T18:30:00Z,26.2168,-96.4998,4.0,12.20494982,356.3356138,15.02,'11111222,11111222,11111222' 
TABS,ioos:station:wmo:42045:1,2009-02-02T19:00:00Z,26.2168,-96.4998,4.0,12.08119613,359.1935299,13.97,'11111222,11144222,11111222' 
TABS,ioos:station:wmo:42045:1,2009-02-02T19:30:00Z,26.2168,-96.4998,4.0,11.01047229,349.9044142,13.25,'11111222,11111222,11111222' 
TABS,ioos:station:wmo:42045:1,2009-02-02T20:00:00Z,26.2168,-96.4998,4.0,10.35973455,353.3481267,12.3,'11111222,11111222,11111222' 
TABS,ioos:station:wmo:42045:1,2009-02-02T20:30:00Z,26.2168,-96.4998,4.0,11.93906194,350.0641129,14.39,'11111222,11111222,11111222' 
TABS,ioos:station:wmo:42045:1,2009-02-02T21:00:00Z,26.2168,-96.4998,4.0,12.21134718,352.612902,15.26,'11111222,11111222,11111222' 
TABS,ioos:station:wmo:42045:1,2009-02-02T21:30:00Z,26.2168,-96.4998,4.0,11.32028268,359.5948801,13.53,'11111222,11144222,11111222' 
TABS,ioos:station:wmo:42045:1,2009-02-02T22:00:00Z,26.2168,-96.4998,4.0,10.71097568,12.67361991,12.86,'11111222,11111222,11111222' 
TABS,ioos:station:wmo:42045:1,2009-02-02T22:30:00Z,26.2168,-96.4998,4.0,10.53160007,16.26648465,12.8,'11111222,11111222,11111222' 
TABS,ioos:station:wmo:42045:1,2009-02-02T23:00:00Z,26.2168,-96.4998,4.0,11.08547248,9.29214901,12.82,'11111222,11111222,11111222' 
TABS,ioos:station:wmo:42045:1,2009-02-02T23:30:00Z,26.2168,-96.4998,4.0,10.9603832,8.499517081,13.69,'11111222,11111222,11111222' 
TABS,ioos:station:wmo:42045:1,2009-02-03T00:00:00Z,26.2168,-96.4998,4.0,11.98642566,16.37850141,14.49,'11111222,11111222,11111222' 
TABS,ioos:station:wmo:42045:1,2009-02-03T00:30:00Z,26.2168,-96.4998,4.0,11.17981216,31.91274699,13.85,'11111222,11111222,11111222' 
TABS,ioos:station:wmo:42045:1,2009-02-03T01:00:00Z,26.2168,-96.4998,4.0,10.13170272,22.94585829,12.36,'11111222,11111222,11111222' 
TABS,ioos:station:wmo:42045:1,2009-02-03T01:30:00Z,26.2168,-96.4998,4.0,10.33816231,30.58328253,12.09,'11111222,11111222,11111222' 
TABS,ioos:station:wmo:42045:1,2009-02-03T02:00:00Z,26.2168,-96.4998,4.0,10.46212693,28.54899238,12.92,'11111222,11111222,11111222' 
TABS,ioos:station:wmo:42045:1,2009-02-03T02:30:00Z,26.2168,-96.4998,4.0,10.03981076,31.39411271,11.92,'11111222,11111222,11111222' 
TABS,ioos:station:wmo:42045:1,2009-02-03T03:00:00Z,26.2168,-96.4998,4.0,9.218817712,35.01718585,11.84,'11111222,11111222,11111222' 
TABS,ioos:station:wmo:42045:1,2009-02-03T03:30:00Z,26.2168,-96.4998,4.0,9.116079201,37.1084362,11.33,'11111222,11111222,11111222' 
TABS,ioos:station:wmo:42045:1,2009-02-03T04:00:00Z,26.2168,-96.4998,4.0,9.174361013,31.76678117,11.14,'11111222,11111222,11111222' 
TABS,ioos:station:wmo:42045:1,2009-02-03T04:30:00Z,26.2168,-96.4998,4.0,8.133387978,34.78396863,10.32,'11111222,11111222,11111222' 
TABS,ioos:station:wmo:42045:1,2009-02-03T05:00:00Z,26.2168,-96.4998,4.0,7.432038751,36.684578,9.67,'11111222,11111222,11111222' 
TABS,ioos:station:wmo:42045:1,2009-02-03T05:30:00Z,26.2168,-96.4998,4.0,7.190417234,34.86116953,9.38,'11111222,11111222,11111222' 
TABS,ioos:station:wmo:42045:1,2009-02-03T06:00:00Z,26.2168,-96.4998,4.0,7.444541625,33.04939163,9.23,'11111222,11111222,11111222' 
TABS,ioos:station:wmo:42045:1,2009-02-03T06:30:00Z,26.2168,-96.4998,4.0,7.010456476,29.85611071,9.24,'11111222,11111222,11111222' 
TABS,ioos:station:wmo:42045:1,2009-02-03T07:00:00Z,26.2168,-96.4998,4.0,7.110682105,38.94894043,9.37,'11111222,11111222,11111222' 
TABS,ioos:station:wmo:42045:1,2009-02-03T07:30:00Z,26.2168,-96.4998,4.0,6.236938351,44.48001017,7.97,'11111222,11111222,11111222' 
TABS,ioos:station:wmo:42045:1,2009-02-03T08:00:00Z,26.2168,-96.4998,4.0,5.372755345,32.9207554,7.47,'11111222,11111222,11111222' 
TABS,ioos:station:wmo:42045:1,2009-02-03T08:30:00Z,26.2168,-96.4998,4.0,5.466488818,45.81496188,7.36,'11111222,11111222,11111222' 
TABS,ioos:station:wmo:42045:1,2009-02-03T09:00:00Z,26.2168,-96.4998,4.0,4.701531665,50.35013458,6.96,'11111222,11111222,11111222' 
TABS,ioos:station:wmo:42045:1,2009-02-03T09:30:00Z,26.2168,-96.4998,4.0,4.552812318,52.04742157,6.46,'11111222,11111222,11111222' 
TABS,ioos:station:wmo:42045:1,2009-02-03T10:00:00Z,26.2168,-96.4998,4.0,3.945491097,41.60911212,5.87,'11111222,11111222,11111222' 
TABS,ioos:station:wmo:42045:1,2009-02-03T10:30:00Z,26.2168,-96.4998,4.0,3.535265195,41.44480396,5.47,'11111222,11111222,11111222' 
TABS,ioos:station:wmo:42045:1,2009-02-03T11:00:00Z,26.2168,-96.4998,4.0,3.711307047,48.27639237,5.57,'11111222,11111222,11111222' 
TABS,ioos:station:wmo:42045:1,2009-02-03T11:30:00Z,26.2168,-96.4998,4.0,3.104593371,64.83780505,4.87,'11111222,11111222,11111222' 
TABS,ioos:station:wmo:42045:1,2009-02-03T12:00:00Z,26.2168,-96.4998,4.0,2.149813945,57.34449589,4.47,'11111222,11111222,11111222' 
TABS,ioos:station:wmo:42045:1,2009-02-03T12:30:00Z,26.2168,-96.4998,4.0,1.950025641,90.29424216,3.3,'11111222,11111222,11111222' 
TABS,ioos:station:wmo:42045:1,2009-02-03T13:00:00Z,26.2168,-96.4998,4.0,1.814662503,59.9023037,3.33,'11111222,11111222,11111222' 
TABS,ioos:station:wmo:42045:1,2009-02-03T13:30:00Z,26.2168,-96.4998,4.0,1.489227988,63.26253155,2.79,'11111222,11111222,11111222' 
TABS,ioos:station:wmo:42045:1,2009-02-03T14:00:00Z,26.2168,-96.4998,4.0,1.800055555,55.86818424,3.91,'11111222,11111222,11111222' 
TABS,ioos:station:wmo:42045:1,2009-02-03T14:30:00Z,26.2168,-96.4998,4.0,1.656049516,24.24325344,3.54,'11111222,11111222,11111222' 
TABS,ioos:station:wmo:42045:1,2009-02-03T15:00:00Z,26.2168,-96.4998,4.0,0.6596969,194.0364211,1.94,'11111222,11111222,11111222' 
TABS,ioos:station:wmo:42045:1,2009-02-03T15:30:00Z,26.2168,-96.4998,4.0,1.214331092,300.1544774,2.22,'11111222,11111222,11111222' 
TABS,ioos:station:wmo:42045:1,2009-02-03T16:00:00Z,26.2168,-96.4998,4.0,0.533385414,239.5889898,1.81,'11111222,11111222,11111222' 
TABS,ioos:station:wmo:42045:1,2009-02-03T16:30:00Z,26.2168,-96.4998,4.0,1.772484133,147.206794,2.88,'11111222,11111222,11111222' 
TABS,ioos:station:wmo:42045:1,2009-02-03T17:00:00Z,26.2168,-96.4998,4.0,0.937443332,191.0703871,2.26,'11111222,11111222,11111222' 
TABS,ioos:station:wmo:42045:1,2009-02-03T17:30:00Z,26.2168,-96.4998,4.0,1.269212354,196.0075773,2.31,'11111222,11111222,11111222' 
TABS,ioos:station:wmo:42045:1,2009-02-03T18:00:00Z,26.2168,-96.4998,4.0,0.945409964,259.6409717,1.95,'11111222,11111222,11111222' 
TABS,ioos:station:wmo:42045:1,2009-02-03T18:30:00Z,26.2168,-96.4998,4.0,0.664003012,232.9576118,2.15,'11111222,11111222,11111222' 
TABS,ioos:station:wmo:42045:1,2009-02-03T19:00:00Z,26.2168,-96.4998,4.0,0.031622777,198.4351162,1.47,'11111222,11111222,11111222' 
TABS,ioos:station:wmo:42045:1,2009-02-03T19:30:00Z,26.2168,-96.4998,4.0,1.298075499,105.6426308,1.9,'11111222,11111222,11111222' 
TABS,ioos:station:wmo:42045:1,2009-02-03T20:00:00Z,26.2168,-96.4998,4.0,1.020784012,182.2459478,2.0,'11111222,11111222,11111222' 
TABS,ioos:station:wmo:42045:1,2009-02-03T20:30:00Z,26.2168,-96.4998,4.0,1.316738395,159.0877117,2.38,'11111222,11111222,11111222' 
TABS,ioos:station:wmo:42045:1,2009-02-03T21:00:00Z,26.2168,-96.4998,4.0,1.104536102,121.6758156,2.05,'11111222,11111222,11111222' 
TABS,ioos:station:wmo:42045:1,2009-02-03T21:30:00Z,26.2168,-96.4998,4.0,1.354474068,85.34133587,2.8,'11111222,11111222,11111222' 
TABS,ioos:station:wmo:42045:1,2009-02-03T22:00:00Z,26.2168,-96.4998,4.0,1.699558766,96.07999566,3.13,'11111222,11111222,11111222' 
TABS,ioos:station:wmo:42045:1,2009-02-03T22:30:00Z,26.2168,-96.4998,4.0,1.960841656,132.313322,3.06,'11111222,11111222,11111222' 
TABS,ioos:station:wmo:42045:1,2009-02-03T23:00:00Z,26.2168,-96.4998,4.0,2.349829781,107.5871354,3.9,'11111222,11111222,11111222' 
TABS,ioos:station:wmo:42045:1,2009-02-03T23:30:00Z,26.2168,-96.4998,4.0,2.460284536,124.4009168,3.92,'11111222,11111222,11111222' 
TABS,ioos:station:wmo:42045:1,2009-02-04T00:00:00Z,26.2168,-96.4998,4.0,2.618740155,137.4764226,3.95,'11111222,11111222,11111222' 
TABS,ioos:station:wmo:42045:1,2009-02-04T00:30:00Z,26.2168,-96.4998,4.0,2.907249559,136.5334098,4.23,'11111222,11111222,11111222' 
TABS,ioos:station:wmo:42045:1,2009-02-04T01:00:00Z,26.2168,-96.4998,4.0,2.707397274,147.3667839,4.3,'11111222,11111222,11111222' 
TABS,ioos:station:wmo:42045:1,2009-02-04T01:30:00Z,26.2168,-96.4998,4.0,3.304935703,139.4178147,4.38,'11111222,11111222,11111222' 
TABS,ioos:station:wmo:42045:1,2009-02-04T02:00:00Z,26.2168,-96.4998,4.0,4.136967488,139.8046103,5.47,'11111222,11111222,11111222' 
TABS,ioos:station:wmo:42045:1,2009-02-04T02:30:00Z,26.2168,-96.4998,4.0,4.469239309,160.3895507,5.98,'11111222,11111222,11111222' 
TABS,ioos:station:wmo:42045:1,2009-02-04T03:00:00Z,26.2168,-96.4998,4.0,4.436361121,153.4929791,5.83,'11111222,11111222,11111222' 
TABS,ioos:station:wmo:42045:1,2009-02-04T03:30:00Z,26.2168,-96.4998,4.0,4.611214591,163.8841772,5.62,'11111222,11111222,11111222' 
TABS,ioos:station:wmo:42045:1,2009-02-04T04:00:00Z,26.2168,-96.4998,4.0,4.022437072,161.7454791,5.45,'11111222,11111222,11111222' 
TABS,ioos:station:wmo:42045:1,2009-02-04T04:30:00Z,26.2168,-96.4998,4.0,4.427301661,161.9745524,6.24,'11111222,11111222,11111222' 
TABS,ioos:station:wmo:42045:1,2009-02-04T05:00:00Z,26.2168,-96.4998,4.0,4.363587973,168.7675569,5.52,'11111222,11111222,11111222' 
TABS,ioos:station:wmo:42045:1,2009-02-04T05:30:00Z,26.2168,-96.4998,4.0,3.583434107,184.9630139,5.13,'11111222,11111222,11111222' 
TABS,ioos:station:wmo:42045:1,2009-02-04T06:00:00Z,26.2168,-96.4998,4.0,4.050604893,179.0100139,5.16,'11111222,11111222,11111222' 
TABS,ioos:station:wmo:42045:1,2009-02-04T06:30:00Z,26.2168,-96.4998,4.0,4.36716155,183.2819178,6.01,'11111222,11111222,11111222' 
TABS,ioos:station:wmo:42045:1,2009-02-04T07:00:00Z,26.2168,-96.4998,4.0,3.901038323,181.322183,5.88,'11111222,11111222,11111222' 
TABS,ioos:station:wmo:42045:1,2009-02-04T07:30:00Z,26.2168,-96.4998,4.0,2.863424523,177.1977655,4.24,'11111222,11111222,11111222' 
TABS,ioos:station:wmo:42045:1,2009-02-04T08:00:00Z,26.2168,-96.4998,4.0,3.461748113,178.1792859,4.93,'11111222,11111222,11111222' 
TABS,ioos:station:wmo:42045:1,2009-02-04T08:30:00Z,26.2168,-96.4998,4.0,3.172774811,166.883805,4.85,'11111222,11111222,11111222' 
TABS,ioos:station:wmo:42045:1,2009-02-04T09:00:00Z,26.2168,-96.4998,4.0,3.965047288,182.8914733,5.11,'11111222,11111222,11111222' 
TABS,ioos:station:wmo:42045:1,2009-02-04T09:30:00Z,26.2168,-96.4998,4.0,4.801499766,178.5681176,6.18,'11111222,11111222,11111222' 
TABS,ioos:station:wmo:42045:1,2009-02-04T10:00:00Z,26.2168,-96.4998,4.0,5.010638682,179.0853877,6.63,'11111222,11111222,11111222' 
TABS,ioos:station:wmo:42045:1,2009-02-04T10:30:00Z,26.2168,-96.4998,4.0,5.510762198,189.8214583,6.83,'11111222,11111222,11111222' 
TABS,ioos:station:wmo:42045:1,2009-02-04T11:00:00Z,26.2168,-96.4998,4.0,4.831490453,178.5770089,6.64,'11111222,11111222,11111222' 
TABS,ioos:station:wmo:42045:1,2009-02-04T11:30:00Z,26.2168,-96.4998,4.0,4.664289871,177.5426781,6.08,'11111222,11111222,11111222' 
TABS,ioos:station:wmo:42045:1,2009-02-04T12:00:00Z,26.2168,-96.4998,4.0,4.340737265,178.9441891,6.13,'11111222,11111222,11111222' 
TABS,ioos:station:wmo:42045:1,2009-02-04T12:30:00Z,26.2168,-96.4998,4.0,3.856864011,183.419004,5.11,'11111222,11111222,11111222' 
TABS,ioos:station:wmo:42045:1,2009-02-04T13:00:00Z,26.2168,-96.4998,4.0,3.756926936,194.3323288,4.95,'11111222,11111222,11111222' 
TABS,ioos:station:wmo:42045:1,2009-02-04T13:30:00Z,26.2168,-96.4998,4.0,3.567996637,194.7764325,4.83,'11111222,11111222,11111222' 
TABS,ioos:station:wmo:42045:1,2009-02-04T14:00:00Z,26.2168,-96.4998,4.0,3.331426121,201.4821986,4.53,'11111222,11111222,11111222' 
TABS,ioos:station:wmo:42045:1,2009-02-04T14:30:00Z,26.2168,-96.4998,4.0,2.492388413,197.2719126,3.53,'11111222,11111222,11111222' 
TABS,ioos:station:wmo:42045:1,2009-02-04T15:00:00Z,26.2168,-96.4998,4.0,2.542439773,204.145696,3.48,'11111222,11111222,11111222' 
TABS,ioos:station:wmo:42045:1,2009-02-04T15:30:00Z,26.2168,-96.4998,4.0,2.185497655,209.6149529,3.4,'11111222,11111222,11111222' 
TABS,ioos:station:wmo:42045:1,2009-02-04T16:00:00Z,26.2168,-96.4998,4.0,1.598812059,209.6116734,2.47,'11111222,11111222,11111222' 
TABS,ioos:station:wmo:42045:1,2009-02-04T16:30:00Z,26.2168,-96.4998,4.0,0.28,180.0002105,0.97,'11111222,11111222,11111222' 
TABS,ioos:station:wmo:42045:1,2009-02-04T17:00:00Z,26.2168,-96.4998,4.0,0.936803074,16.11317009,1.64,'11111222,11111222,11111222' 
TABS,ioos:station:wmo:42045:1,2009-02-04T17:30:00Z,26.2168,-96.4998,4.0,1.06606754,73.09446052,2.15,'11111222,11111222,11111222' 
TABS,ioos:station:wmo:42045:1,2009-02-04T18:00:00Z,26.2168,-96.4998,4.0,2.093800373,43.45153023,2.89,'11111222,11111222,11111222' 
TABS,ioos:station:wmo:42045:1,2009-02-04T18:30:00Z,26.2168,-96.4998,4.0,1.569840756,34.09468777,2.37,'11111222,11111222,11111222' 